User: anonymous   Login
Location: Unspecified
(48.2082°N, 0.0000°E)
Time: 01:56:22
(UTC+00:00)
Language:

Transit 2A Rocket - Orbit

View from above orbital plane
View from above orbital plane
View from above satellite
View from above satellite

Ground track
Ground track

The orbit data is extracted from the following two-line orbital elements,

1    47U 60007C   19175.99744810 -.00000054  00000-0  13076-4 0  9990
2    47  66.6663  33.4116 0231435 207.2500 151.6309 14.42038974 83433
Epoch (UTC): 24 June 2019 23:56:19
Eccentricity: 0.0231435
inclination: 66.6663°
perigee height: 587 km
apogee height: 917 km
right ascension of ascending node: 33.4116°
argument of perigee: 207.2500°
revolutions per day: 14.42038974
mean anomaly at epoch: 151.6309°
orbit number at epoch: 8343

The dashed part of the orbit path shows where the satellite is in the earth's shadow,  

DLR